This demonstration page uses our WeatherBlox Daily Observations layout. Learn more.

Left ArrowRight Arrow

38.88101, -77.10428

Hourly Observations for May 10, 2020

Temp ( °F °C ) Dew Point ( °F °C ) Humidity (%) Winds ( mph kmh ) Pressure ( in mb ) Visibility ( mi km ) Precip ( " mm )
12:52 am 00:52 Clear 39 3.9 25 -3.9 57 57 WSW 7 11 30.24 1024 10 16.0934 0 0
1:52 am 01:52 Clear 39 3.9 24 -4.4 55 55 SW 6 9 30.24 1024 10 16.0934 0 0
2:52 am 02:52 Clear 38 3.3 26 -3.3 62 62 SSW 5 7 30.23 1024 10 16.0934 0 0
3:52 am 03:52 Clear 39 3.9 25 -3.9 57 57 SSW 6 9 30.23 1024 10 16.0934 0 0
4:52 am 04:52 Clear 39 3.9 26 -3.3 60 60 S 5 7 30.22 1024 10 16.0934 0 0
5:52 am 05:52 Mostly Clear 39 3.9 26 -3.3 60 60 S 9 15 30.23 1024 10 16.0934 0 0
6:52 am 06:52 Mostly Cloudy 40 4.4 27 -2.8 60 60 S 8 13 30.24 1024 10 16.0934 0 0
7:52 am 07:52 Mostly Cloudy 45 7.2 29 -1.7 54 54 S 8 13 30.26 1025 10 16.0934 0 0
8:52 am 08:52 Partly Cloudy 51 10.6 28 -2.2 41 41 SW 9 15 30.26 1025 10 16.0934 0 0
9:52 am 09:52 Partly Cloudy with Light Rain 56 13.3 28 -2.2 34 34 WSW 13 20 30.25 1024 10 16.0934 0.001 0.001
10:52 am 10:52 Mostly Sunny 57 13.9 26 -3.3 30 30 SSW 14 22 30.23 1024 10 16.0934 0 0
11:52 am 11:52 Mostly Sunny 60 15.6 27 -2.8 28 28 SW 10 17 30.22 1023 10 16.0934 0 0
12:52 pm 12:52 Mostly Sunny 61 16.1 32 0 34 34 S 15 24 30.18 1022 10 16.0934 0 0
1:52 pm 13:52 Mostly Sunny 62 16.7 32 0 32 32 S 17 28 30.15 1021 10 16.0934 0 0
2:52 pm 14:52 Mostly Sunny 63 17.2 31 -0.6 30 30 S 20 31 30.11 1020 10 16.0934 0 0
3:52 pm 15:52 Mostly Sunny 64 17.8 32 0 30 30 S 18 30 30.08 1019 10 16.0934 0 0
4:52 pm 16:52 Mostly Sunny 64 17.8 32 0 30 30 S 15 24 30.04 1017 10 16.0934 0 0
5:52 pm 17:52 Mostly Sunny 65 18.3 32 0 29 29 SSW 10 17 30.02 1017 10 16.0934 0 0
6:52 pm 18:52 Mostly Sunny 64 17.8 31 -0.6 29 29 SW 13 20 30.01 1016 10 16.0934 0 0
7:52 pm 19:52 Mostly Sunny 61 16.1 37 2.8 41 41 S 10 17 30.01 1016 10 16.0934 0 0
8:52 pm 20:52 Mostly Clear 58 14.4 41 5 53 53 S 8 13 29.99 1016 10 16.0934 0 0
9:52 pm 21:52 Clear 56 13.3 40 4.4 55 55 SSW 9 15 29.99 1016 10 16.0934 0 0
10:52 pm 22:52 Mostly Clear 56 13.3 40 4.4 55 55 S 9 15 29.98 1015 10 16.0934 0 0
11:52 pm 23:52 Partly Cloudy 55 12.8 42 5.6 62 62 S 10 17 29.95 1014 10 16.0934 0 0

Powered by AerisWeather